CZ-4C DEB, 43280

Orbit data source: Space-Track

CZ-4C DEB, 43280 is space debris in LEO originally from a launch on Tue, 10 Apr 2018 UTC launched from the Jiuquan Satellite Launch Center, China (JSC). Debris objects in space refer to the collection of defunct objects orbiting the Earth. Examples of debris include non-operational satellites, rocket bodies, and fragments generated from explosions, collisions, or faulty payload assembly.

Loading next visibility...
Identifier
43280, 2018-034F
Orbit
LEO
Country
Flag of CNCN / PRC
Related business
Manufacturer
Unknown
Mission
Spacecraft
Bus & Motor
Unknown
Mass
Unknown
Launch date (UTC)
2018-04-10 (8 years ago)
Launch vehicle
Unknown
Launch site
Jiuquan Satellite Launch Center, China (JSC)
Object type
Payload
Rocket body
Debris
Shape & HBR
Unknown shape, 2.3 m
Radar Cross Section
Large (>1 m²)

Expand to show TLE details & history
Last TLE update: 8 hours ago

TLE from 8 hours ago
0 CZ-4C DEB
1 43280U 18034F   25308.47639682  .00000093  00000-0  26083-3 0  9990
2 43280  63.3989 325.8180 0249815   6.4884 353.9276 13.44345907371638
Epoch: 2025-11-04T11:26Z
TLE epoch observation values (Epoch: 2025-11-04T11:26:00.685Z)
Latitude
-0.00003°
Longitude
110.35226°
Altitude
909.34 km
Speed
7.489 km/s
True Right ascension
21h 43m 16s
True Declination
0° 00' 00"
Sunlit
Object was in daylight at epoch
Visualization orbit readout
Latitude
Unknown
Longitude
Unknown
Altitude
Unknown
Speed
Unknown
Apparent Right ascension
Unknown
Apparent Declination
Unknown
Sunlit
N/A
Visualization observer readout
Local Sidereal Time
15:48:18
Azimuth
Unknown
Elevation
Unknown
Doppler factor
Unknown
Orbital elements
Apogee altitude
1,278.577 km
Perigee altitude
905.349 km
Semi-major axis
7,470.1 km
Eccentricity
0.02498
Inclination
63.3989°
RAAN
325.818°
Arg. of periapsis
6.4884°
True anomaly
353.61508°
Mean anomaly
353.9276°
Eccentric anomaly
353.77233°
Mean motion
3.36166 °/min
Orbital period
107.09 mins
BSTAR
0.00026083
Loading maneuver chart data...
Computing Atmospheric mass density...
Loading historical data...
Loading historical data...
Loading historical data...
Loading historical data...
Loading historical data...
Loading historical data...
Loading historical data...

Documentation

Showing up to 5 results
|